Main page
METAR-TAF:

METAR-TAF

Airports :

Bandar Lengeh Airport

Bandar Lengeh, Iran

latitude: 26-35N, longitude: 054-50E, elevation: 14 m

Current weather observation

The report was made 1 hour and 32 minutes ago, at 21:00 UTC
Calm wind
Temperature 30°C
Humidity 100%
Pressure 997 hPa
Visibility: 2000 m
mist

METAR: OIBL 102100Z 00000KT 2000 BR NSC 30/30 Q0997

Time: 03:02 (22:32 UTC)


TAF: missing

Weather observations and forecasts of more than 4000 airports (METAR and TAF reports).

The available stations are represented by yellow and red dots on the map.

Hover mouse over dot to see the name of the station.

Then click to see weather observations and forecasts.

To change the map : click on the green buttons with a black cross to zoom in, on the green button with a dash to zoom out, or on the green arrows for adjacent maps.


METAR-TAF: